Location: Newark
(40.4667°N, 5.6000°W)
Time: 00:09:23
(UTC+00:00)

A-11 Canister half - Pass Details

Date: 26 November 2019
Orbit: 1526 x 1683 km, 47.3° (Epoch: 07 December)

Event Time Altitude Azimuth Distance (km) Brightness Sun altitude
Rises 18:21:52 0° 293° (WNW) 4,806 12.5 -15.7°
Reaches altitude 10° 18:25:59 10° 278° (W) 3,789 12.1 -16.4°
Maximum altitude 18:32:29 21° 235° (SW) 2,974 11.3 -17.6°
Drops below altitude 10° 18:38:53 10° 190° (S) 3,706 11.3 -18.8°
Sets 18:42:53 0° 175° (S) 4,671 11.6 -19.6°
